Regional Weather Roundup
Issued by NWS

Home | Current Version | Previous Version | Text Only | Print | Product List | Glossary On
Versions: 1 2 3 4 5 6 7 8 9 10 11 12 13 14 15 16 17 18 19 20 21 22 23 24 25 26 27
000
ASUS44 KJAN 301610
RWRMS

MISSISSIPPI HOURLY WEATHER ROUNDUP
NATIONAL WEATHER SERVICE JACKSON MS
1100 AM CDT SUN APR 30 2017

NOTE: "FAIR: INDICATES FEW OR NO CLOUDS BELOW 12,000 FEET WITH NO
SIGNIFICANT WEATHER AND/OR OBSTRUCTIONS TO VISIBILITY.

MSZ001>002-007>008-010>013-018>021-025>028-034>036-301700-
NORTHWEST MISSISSIPPI

CITY           SKY/WX    TMP DP  RH WIND       PRES   REMARKS
BATESVILLE     TSTM      72  70  94 SW10      29.81R
CLARKSDALE     PTSUNNY   72  72 100 SE15G24   29.69F
CLEVELAND      LGT RAIN  70  70 100 SW20      29.78R
GREENWOOD      TSTM      67  65  93 SE13      29.76F FOG
GREENVILLE     CLOUDY    67  62  84 CALM      29.76F
OLIVE BRANCH   RAIN     N/A N/A N/A S12G21    29.78S FOG
OXFORD         RAIN      68  66  94 SE10G21   29.80F
TUNICA         LGT RAIN  68  64  88 SE17G25   29.70F
WINONA         TSTM      66  65  97 SE9       29.84R
$$

MSZ003>006-009-014>017-022>024-029>033-037>039-301700-
NORTHEAST MISSISSIPPI

CITY           SKY/WX    TMP DP  RH WIND       PRES   REMARKS
COLUMBUS AFB   PTSUNNY   75  70  83 S18G26    29.90R
CORINTH        CLOUDY    75  66  73 S16G24    29.86R
GOLDN TRIANGLE LGT RAIN  73  64  73 S21G28    29.86R
STARKVILLE     LGT RAIN  72  68  88 S15G22    29.91R
TUPELO         CLOUDY    73  66  78 SE15G24   29.85F
$$

MSZ040-058-301700-
CENTRAL MISSISSIPPI

CITY           SKY/WX    TMP DP  RH WIND       PRES   REMARKS
JACKSON INTL   TSTM      68  65  90 SE20G29   29.86R
JACKSON HAWKNS RAIN      67  65  93 SE17G28   29.84R FOG
MADISON        CLOUDY    64  64 100 SE9       29.85R THUNDER
MERIDIAN KEY   TSTM      72  69  90 W13G29    30.00R VSB 3/4
MERIDIAN NAS   CLOUDY    76  67  73 S12       29.95R
RAYMOND          N/A    N/A N/A N/A MISG        N/A
VICKSBURG VKS  CLOUDY    68  66  94 SE7G13    29.78F FOG
$$

MSZ059>079-301700-
SOUTH MISSISSIPPI

CITY           SKY/WX    TMP DP  RH WIND       PRES   REMARKS
HATTIESBURG    CLOUDY    77  72  84 S7        29.95R
LAUREL         CLOUDY    76  76  99 SW3       29.97R
MCCOMB         RAIN      68  65  90 S14       29.85F
NATCHEZ        CLOUDY    67  66  97 SW3       29.84R
PINE BELT      CLOUDY    75  70  83 SW16G30   30.00R
$$

MSZ080>082-301700-
COASTAL MISSISSIPPI

CITY           SKY/WX    TMP DP  RH WIND       PRES   REMARKS
BAY ST LOUIS   CLOUDY    79  72  78 SE14G25   29.91S
BILOXI         CLOUDY    79  74  84 SE13G22   29.93F
PASCAGOULA     LGT RAIN  78  73  84 SE14G23   29.97R
GULFPORT       CLOUDY    80  75  84 SE20G30   29.93S
$$

LAZ007>009-015>016-023>026-301700-
NORTHEAST LOUISIANA

CITY           SKY/WX    TMP DP  RH WIND       PRES   REMARKS
BASTROP        PTSUNNY   64  63  97 CALM      29.77F
TALLULAH/VBURG CLOUDY    68  66  93 S12       29.80R
VIDALIA        CLOUDY   N/A N/A N/A W7        29.83R
$$




USA.gov is the U.S. government's official web portal to all federal, state and local government web resources and services.